Home   Weather   Salzwedel   Past weeks

Flag for Germany Past Weather in Salzwedel, Saxony-Anhalt, Germany — Yesterday and Last 2 Weeks

Now
55 °F

Partly sunny.


Feels Like: 55 °F
Forecast: 50 / 61 °F
Wind: 3 mph from Southeast

Location: Fassberg

Current Time: Oct 1, 2016 at 7:14:15 PM

Latest Report: Oct 1, 2016 at 6:20 PM


Visibility: N/A

Pressure: 29.74 "Hg

Humidity: 82%

Dew Point: 50 °F

Location of SalzwedelLocation

Past Weather in Salzwedel — Graph

°F

Salzwedel Temperature Yesterday

Maximum temperature yesterday: 63 °F (at 2:20 PM)
Minimum temperature yesterday: 45 °F (at 11:20 PM)
Average temperature yesterday: 57 °F

High & Low Weather Summary for the Past Weeks

 TemperatureHumidityPressure
High75 °F (Sep 25, 3:20 PM)100% (Sep 21, 8:20 PM)30.30 "Hg (Sep 21, 8:20 PM)
Low39 °F (Sep 24, 6:45 AM)36% (Sep 25, 3:20 PM)29.77 "Hg (Oct 1, 3:20 PM)
Average58 °F77%30.09 "Hg
* Reported Sep 16 5:20 PM — Oct 1 5:20 PM, Salzwedel, Weather by CustomWeather, © 2016

Note: Actual official high and low records may vary slightly from our data, if they occured in-between our weather recording intervals... More about our weather records

Advertising

Salzwedel Weather History for the Previous 24 Hours

Scroll right to see more
 ConditionsComfort  
Time TempWeatherWind HumidityBarometerVisibility
5:20 PM
Sat, Oct 1
55 °FPartly sunny.5 mph88%29.77 "HgN/A
4:20 PM55 °FPartly sunny.6 mph88%29.77 "HgN/A
3:20 PM55 °FPartly sunny.3 mph88%29.77 "HgN/A
2:20 PM55 °FPartly sunny.5 mph88%29.80 "HgN/A
1:20 PM55 °FPartly sunny.6 mph88%29.83 "HgN/A
12:20 PM55 °FPartly sunny.5 mph88%29.86 "Hg6 mi
11:20 AM54 °FPartly sunny.3 mph88%29.86 "Hg6 mi
10:20 AM54 °FPartly sunny.1 mph88%29.86 "HgN/A
9:20 AM50 °FPartly sunny.3 mph94%29.86 "HgN/A
8:20 AM48 °FPartly sunny.1 mph94%29.86 "HgN/A
7:20 AM48 °FPassing clouds.1 mph87%29.89 "HgN/A
6:20 AM46 °FPassing clouds.2 mph93%29.89 "HgN/A
5:20 AM45 °FMostly cloudy.1 mph93%29.89 "HgN/A
4:20 AM45 °FOvercast.1 mph93%29.89 "HgN/A
3:20 AM43 °FPassing clouds.No wind93%29.92 "HgN/A
2:20 AM43 °FFog.1 mph100%29.92 "HgN/A
1:20 AM43 °FFog.No wind93%29.92 "HgN/A
12:20 AM43 °FFog.1 mph93%29.95 "HgN/A
11:20 PM
Fri, Sep 30
45 °FFog.1 mph93%29.95 "HgN/A
10:20 PM50 °FFog.3 mph88%29.95 "HgN/A
9:20 PM46 °FFog.3 mph100%29.95 "HgN/A
7:20 PM54 °FPassing clouds.6 mph88%29.92 "HgN/A
Weather by CustomWeather, © 2016

See weather overviewHow to use our weather pages